Weather History for Pella, IA

Change the Weather History Date:

Wednesday, July 10, 2013

  Actual Average (KOXV) Record (KOXV)
Temperature  
Mean Temperature 72 °F -  
Max Temperature 82 °F 87 °F 100 °F (1966)
Min Temperature 62 °F 66 °F 51 °F (1996)
Cooling Degree Days 7    
Growing Degree Days 22 (Base 50)    
Moisture  
Dew Point 61 °F    
Average Humidity 63    
Maximum Humidity 95    
Minimum Humidity 36    
Precipitation  
Precipitation 0.00 in - - ()
Sea Level Pressure  
Sea Level Pressure 30.01 in    
Wind  
Wind Speed 5 mph (North)    
Max Wind Speed 14 mph    
Max Gust Speed 20 mph    
Visibility 10 miles    
Events      
Averages and records for this station are not official NWS values.
T = Trace of Precipitation, MM = Missing Value Source: NWS Daily Summary

Daily Weather History Graph

Daily Weather History Graph

Search for Another Location

Airport:

Trip Planner

Search our weather history database for the weather conditions in past years. The results will help you decide how hot, cold, wet, or windy it might be!

Date:

Astronomy

Jul. 10, 2013 Rise Set
Actual Time 5:47 AM CDT 8:46 PM CDT
Civil Twilight 5:14 AM CDT 9:19 PM CDT
Nautical Twilight 4:32 AM CDT 10:01 PM CDT
Astronomical Twilight 3:42 AM CDT 10:50 PM CDT
Moon 8:11 AM CDT (7/10) 9:53 PM CDT (7/10)
Length of Visible Light 16h 04m
Length of Day
14h 58m
Waxing Crescent, 5% of the Moon is Illuminated
Jul 10
Waxing Crescent
Jul 15
First Quarter
Jul 22
Full
Jul 29
Last Quarter
Aug 6
New

Hourly Weather History & Observations

Time (CDT) Temp. Heat Index Dew Point Humidity Pressure Visibility Wind Dir Wind Speed Gust Speed Precip Events Conditions
12:15 AM 77.0 °F - 75.0 °F 94% 29.91 in 7.0 mi Calm Calm - N/A   Clear
12:35 AM 76.1 °F - 74.3 °F 94% 29.91 in 7.0 mi Calm Calm - N/A   Clear
12:55 AM 76.3 °F - 74.8 °F 95% 29.91 in 10.0 mi NW 3.5 mph - N/A   Clear
1:15 AM 77.4 °F - 75.0 °F 92% 29.92 in 10.0 mi NNW 5.8 mph - N/A   Clear
1:35 AM 77.0 °F - 73.9 °F 90% 29.92 in 10.0 mi North 4.6 mph - N/A   Clear
1:55 AM 76.1 °F - 73.2 °F 91% 29.92 in 10.0 mi North 6.9 mph - N/A   Clear
2:15 AM 76.1 °F - 72.0 °F 87% 29.93 in 10.0 mi North 8.1 mph - N/A   Clear
2:55 AM 74.8 °F - 69.1 °F 82% 29.93 in 10.0 mi North 8.1 mph - N/A   Clear
3:15 AM 74.3 °F - 68.9 °F 83% 29.93 in 10.0 mi North 6.9 mph - N/A   Clear
3:35 AM 74.1 °F - 68.0 °F 81% 29.94 in 10.0 mi North 6.9 mph - N/A   Clear
3:55 AM 73.9 °F - 67.5 °F 80% 29.94 in 10.0 mi North 6.9 mph - N/A   Clear
4:15 AM 74.3 °F - 67.3 °F 79% 29.94 in 10.0 mi North 5.8 mph - N/A   Mostly Cloudy
4:35 AM 74.3 °F - 67.1 °F 78% 29.95 in 10.0 mi North 5.8 mph - N/A   Mostly Cloudy
4:55 AM 73.8 °F - 66.6 °F 78% 29.96 in 10.0 mi North 6.9 mph - N/A   Scattered Clouds
5:15 AM 73.4 °F - 65.8 °F 77% 29.96 in 10.0 mi NNW 8.1 mph - N/A   Scattered Clouds
5:35 AM 71.8 °F - 66.2 °F 83% 29.98 in 10.0 mi NNW 8.1 mph - N/A   Clear
5:55 AM 71.2 °F - 66.0 °F 84% 29.98 in 10.0 mi NNW 11.5 mph - N/A   Scattered Clouds
6:15 AM 70.9 °F - 64.4 °F 80% 30.00 in 10.0 mi NNW 8.1 mph - N/A   Clear
6:35 AM 70.5 °F - 63.5 °F 78% 30.01 in 10.0 mi NNW 8.1 mph - N/A   Clear
6:55 AM 70.7 °F - 63.1 °F 77% 30.01 in 10.0 mi NNW 8.1 mph - N/A   Clear
7:15 AM 71.1 °F - 64.0 °F 78% 30.02 in 10.0 mi NNW 11.5 mph - N/A   Clear
7:35 AM 71.6 °F - 63.0 °F 74% 30.02 in 10.0 mi NNW 11.5 mph - N/A   Clear
7:55 AM 72.1 °F - 63.0 °F 73% 30.02 in 10.0 mi North 9.2 mph 18.4 mph N/A   Clear
8:15 AM 72.5 °F - 62.2 °F 70% 30.01 in 10.0 mi North 13.8 mph 19.6 mph N/A   Clear
8:35 AM 72.9 °F - 62.1 °F 69% 30.01 in 10.0 mi North 13.8 mph 19.6 mph N/A   Clear
8:55 AM 73.4 °F - 62.6 °F 69% 30.02 in 10.0 mi North 10.4 mph 16.1 mph N/A   Clear
9:15 AM 74.5 °F - 61.9 °F 65% 30.03 in 10.0 mi North 10.4 mph 16.1 mph N/A   Clear
9:35 AM 74.5 °F - 61.0 °F 63% 30.02 in 10.0 mi North 10.4 mph 18.4 mph N/A   Clear
9:55 AM 75.4 °F - 61.0 °F 61% 30.03 in 10.0 mi North 10.4 mph 16.1 mph N/A   Clear
10:15 AM 76.1 °F - 61.2 °F 60% 30.03 in 10.0 mi North 6.9 mph 16.1 mph N/A   Clear
10:35 AM 76.8 °F - 60.4 °F 57% 30.04 in 10.0 mi North 6.9 mph 16.1 mph N/A   Clear
10:55 AM 77.2 °F - 58.6 °F 53% 30.05 in 10.0 mi North 6.9 mph 16.1 mph N/A   Clear
11:15 AM 77.9 °F - 59.9 °F 54% 30.06 in 10.0 mi North 5.8 mph - N/A   Clear
11:35 AM 77.9 °F - 58.6 °F 51% 30.06 in 10.0 mi North 5.8 mph - N/A   Clear
11:55 AM 78.1 °F - 57.4 °F 49% 30.06 in 10.0 mi North 9.2 mph - N/A   Clear
12:15 PM 78.8 °F - 58.1 °F 49% 30.07 in 10.0 mi North 9.2 mph - N/A   Clear
12:35 PM 79.2 °F - 58.1 °F 48% 30.07 in 10.0 mi North 5.8 mph - N/A   Clear
12:55 PM 79.5 °F - 58.6 °F 49% 30.07 in 10.0 mi North 6.9 mph - N/A   Clear
1:15 PM 79.7 °F - 57.6 °F 47% 30.06 in 10.0 mi North 4.6 mph - N/A   Clear
1:35 PM 79.9 °F - 57.6 °F 46% 30.07 in 10.0 mi NNW 4.6 mph - N/A   Clear
1:55 PM 80.1 °F 80.6 °F 58.1 °F 47% 30.07 in 10.0 mi NNW 3.5 mph - N/A   Clear
2:15 PM 80.8 °F 80.9 °F 56.8 °F 44% 30.06 in 10.0 mi North 5.8 mph - N/A   Clear
2:35 PM 80.6 °F 80.8 °F 57.4 °F 45% 30.06 in 10.0 mi North 4.6 mph - N/A   Clear
2:55 PM 81.0 °F 80.7 °F 55.2 °F 41% 30.06 in 10.0 mi North 5.8 mph - N/A   Clear
3:15 PM 81.5 °F 81.3 °F 56.5 °F 42% 30.05 in 10.0 mi NNE 5.8 mph - N/A   Clear
3:35 PM 81.7 °F 81.4 °F 56.5 °F 42% 30.05 in 10.0 mi North 5.8 mph - N/A   Clear
3:55 PM 81.7 °F 81.3 °F 55.8 °F 41% 30.05 in 10.0 mi NW 8.1 mph - N/A   Clear
4:15 PM 82.0 °F - 52.7 °F 36% 30.06 in 10.0 mi North 4.6 mph - N/A   Clear
4:35 PM 82.0 °F 81.6 °F 56.3 °F 41% 30.05 in 10.0 mi North 4.6 mph - N/A   Clear
4:55 PM 81.9 °F 81.3 °F 55.6 °F 40% 30.04 in 10.0 mi NW 9.2 mph - N/A   Clear
5:15 PM 82.0 °F 81.5 °F 55.4 °F 40% 30.04 in 10.0 mi North 5.8 mph - N/A   Clear
5:35 PM 81.5 °F 81.1 °F 55.4 °F 41% 30.03 in 10.0 mi NW 6.9 mph - N/A   Clear
5:55 PM 81.3 °F 80.7 °F 53.4 °F 38% 30.03 in 10.0 mi NNW 9.2 mph - N/A   Clear
6:15 PM 81.3 °F 81.0 °F 55.8 °F 41% 30.03 in 10.0 mi NW 6.9 mph - N/A   Clear
6:35 PM 80.6 °F 80.5 °F 55.4 °F 42% 30.02 in 10.0 mi Calm Calm - N/A   Clear
6:55 PM 79.9 °F - 54.7 °F 42% 30.02 in 10.0 mi North 4.6 mph - N/A   Clear
7:15 PM 79.0 °F - 56.3 °F 46% 30.02 in 10.0 mi North 3.5 mph - N/A   Clear
7:35 PM 77.7 °F - 56.7 °F 48% 30.02 in 10.0 mi Calm Calm - N/A   Clear
7:55 PM 75.4 °F - 57.2 °F 53% 30.01 in 10.0 mi North 3.5 mph - N/A   Clear
8:15 PM 73.4 °F - 57.4 °F 57% 30.01 in 10.0 mi Calm Calm - N/A   Clear
8:35 PM 70.9 °F - 56.8 °F 61% 30.01 in 10.0 mi Calm Calm - N/A   Clear
8:55 PM 68.9 °F - 57.6 °F 67% 30.02 in 10.0 mi Calm Calm - N/A   Clear
9:15 PM 67.6 °F - 56.8 °F 68% 30.03 in 10.0 mi Calm Calm - N/A   Clear
9:35 PM 67.3 °F - 56.5 °F 68% 30.03 in 10.0 mi Calm Calm - N/A   Clear
9:55 PM 66.7 °F - 55.9 °F 68% 30.04 in 10.0 mi Calm Calm - N/A   Clear
10:15 PM 64.4 °F - 57.0 °F 77% 30.04 in 10.0 mi Calm Calm - N/A   Clear
10:35 PM 65.5 °F - 55.6 °F 70% 30.05 in 10.0 mi Calm Calm - N/A   Clear
10:55 PM 63.9 °F - 55.4 °F 74% 30.06 in 10.0 mi Calm Calm - N/A   Clear
11:15 PM 62.6 °F - 55.6 °F 78% 30.06 in 10.0 mi Calm Calm - N/A   Clear
11:35 PM 64.8 °F - 54.9 °F 70% 30.06 in 10.0 mi Calm Calm - N/A   Clear
11:55 PM 65.3 °F - 54.3 °F 68% 30.07 in 10.0 mi Calm Calm - N/A   Clear